| DS18B20 | SHTC3 | PZEM-004T | WiFi | ||||||||
|---|---|---|---|---|---|---|---|---|---|---|---|
| ID | Date d/m/Y & Time | data1 สูง | data2 ต่ำ | data3 นอก | temp pcb | hum pcb | Volt | Amp | Watt | rssi | Time |
| 14680 | 21/08/2026 14:44:12 | 35.1  | 33.4  | 35.5  | 35.7  | 61.4  | 232.9  | 0.04  | 4.5  | -77  | 14:44 |
| 14679 | 21/08/2026 14:39:29 | 35.1  | 33.3  | 35.5  | 35.8  | 61.5  | 232.9  | 0.04  | 4.5  | -77  | 14:39 |
| 14678 | 21/08/2026 14:34:45 | 35.1  | 33.3  | 35.4  | 35.9  | 61.5  | 233.0  | 0.04  | 4.5  | -78  | 14:34 |
| 14677 | 21/08/2026 14:30:02 | 35.1  | 33.2  | 35.6  | 35.7  | 61.4  | 232.2  | 0.04  | 4.6  | -78  | 14:30 |
| 14676 | 21/08/2026 14:25:18 | 35.1  | 33.2  | 35.4  | 35.7  | 61.3  | 232.1  | 0.04  | 4.6  | -77  | 14:25 |
| 14675 | 21/08/2026 14:20:34 | 35.1  | 33.2  | 34.9  | 35.8  | 61.4  | 232.9  | 0.04  | 4.5  | -78  | 14:20 |
| 14674 | 21/08/2026 14:15:51 | 35.1  | 33.2  | 35.1  | 35.7  | 61.3  | 233.0  | 0.04  | 4.5  | -79  | 14:15 |
| 14673 | 21/08/2026 14:11:07 | 35.1  | 33.1  | 35.0  | 35.8  | 61.3  | 233.1  | 0.04  | 4.5  | -76  | 14:11 |
| 14672 | 21/08/2026 14:06:24 | 35.1  | 33.1  | 34.2  | 35.9  | 61.1  | 232.9  | 0.04  | 4.6  | -76  | 14:06 |
| 14671 | 21/08/2026 14:01:40 | 35.1  | 33.1  | 34.5  | 35.8  | 61.1  | 232.0  | 0.04  | 4.6  | -77  | 14:01 |
| 14670 | 21/08/2026 13:56:57 | 35.2  | 33.1  | 34.5  | 35.7  | 61.2  | 233.3  | 0.04  | 4.6  | -76  | 13:56 |
| 14669 | 21/08/2026 13:52:13 | 35.2  | 33.0  | 34.4  | 35.7  | 61.1  | 232.4  | 0.04  | 4.5  | -76  | 13:52 |
| 14668 | 21/08/2026 13:47:30 | 35.1  | 33.0  | 35.4  | 35.7  | 61.1  | 232.1  | 0.04  | 4.5  | -78  | 13:47 |
| 14667 | 21/08/2026 13:42:46 | 35.1  | 32.9  | 35.9  | 35.8  | 61.2  | 232.4  | 0.04  | 4.5  | -77  | 13:42 |
| 14666 | 21/08/2026 13:38:03 | 35.1  | 32.9  | 35.6  | 35.7  | 61.2  | 231.9  | 0.04  | 4.5  | -79  | 13:38 |
| 14665 | 21/08/2026 13:33:19 | 35.1  | 32.8  | 35.4  | 35.5  | 61.2  | 231.9  | 0.04  | 4.6  | -78  | 13:33 |
| 14664 | 21/08/2026 13:28:36 | 35.0  | 32.8  | 34.9  | 35.6  | 61.2  | 231.0  | 0.04  | 4.5  | -77  | 13:28 |
| 14663 | 21/08/2026 13:23:52 | 34.9  | 32.8  | 34.9  | 35.5  | 61.3  | 232.0  | 0.04  | 4.5  | -77  | 13:23 |
| 14662 | 21/08/2026 13:19:09 | 34.9  | 32.7  | 35.1  | 35.5  | 61.3  | 232.0  | 0.04  | 4.5  | -78  | 13:19 |
| 14661 | 21/08/2026 13:14:26 | 34.9  | 32.6  | 35.1  | 35.6  | 61.3  | 232.1  | 0.04  | 4.6  | -78  | 13:14 |
| 14660 | 21/08/2026 13:09:40 | 34.9  | 32.6  | 35.5  | 35.3  | 61.1  | 231.8  | 0.04  | 4.5  | -78  | 13:09 |
| 14659 | 21/08/2026 13:04:56 | 34.8  | 32.6  | 35.5  | 35.2  | 61.2  | 231.0  | 0.04  | 4.5  | -79  | 13:04 |
| 14658 | 21/08/2026 13:00:12 | 34.7  | 32.5  | 35.7  | 35.3  | 61.2  | 231.1  | 0.04  | 4.5  | -76  | 13:00 |
| 14657 | 21/08/2026 12:55:29 | 34.6  | 32.4  | 35.4  | 35.3  | 61.3  | 232.5  | 0.04  | 4.6  | -77  | 12:55 |